{"data":{"norad_id":39072,"intl_designator":"2013-005A","name":"GLOBALSTAR M097","alt_names":[],"object_type":"PAYLOAD","status":"ACTIVE","operator":null,"country":"GLOB","launch_date":"2013-02-06","launch_site_code":"TYMSC","launch_vehicle":null,"mission":null,"orbit_class":"UNKNOWN","rcs_meters":4.343,"size_class":null,"mass_kg":null,"dimensions":null,"purposes":["comms"],"wikipedia_slug":null,"has_3d_model":false,"image_url":null,"decayed_at":null,"tle_current":{"epoch":"2026-05-24T21:10:42.517056Z","epoch_age_seconds":81618,"freshness":"FRESH","line1":"1 39072U 13005A   26144.88243654 -.00000090  00000+0  75172-4 0  9992","line2":"2 39072  52.0057 314.2755 0000622 103.4772 256.6164 12.62251163613967","mean_motion":12.62251163,"eccentricity":6.22e-5,"inclination_deg":52.0057,"raan_deg":314.2755,"arg_perigee_deg":103.4772,"mean_anomaly_deg":256.6164,"bstar":7.5172e-5,"rev_number":61396,"period_min":114.08189132324,"perigee_km":1413.1817905233,"apogee_km":1414.1510908713,"semimajor_km":7791.8034406973,"source":"CELESTRAK","updated_at":"2026-05-25T13:38:23.046088Z"}}}